Location: *
(58.7167°N, 26.1833°E)
Time: 22:33:23
(UTC+00:00)

Iridium 51 - Pass Details

Date: 25 August 2019
Orbit: 460 x 744 km, 86.4° (Epoch: 15 September)

Event Time Altitude Azimuth Distance (km) Brightness Sun altitude
Exits shadow 21:29:38 61° 125° (SE) 577 4.1 -20.0°
Maximum altitude 21:29:59 65° 91° (E) 559 4.2 -20.0°
Drops below altitude 10° 21:33:50 10° 10° (N) 1,798 7.9 -20.1°
Sets 21:36:05 0° 8° (N) 2,742 9.2 -20.2°
